OBJECT B, 68692

Orbit data source: Space-Track

You're viewing an Uncataloged Satellite

Recently launched and/or uncataloged satellites may have evolving metadata. Metadata may include but not limited to: Owner, Maufacturer, Bus, Motor, and Mission.

OBJECT B, 68692 is a satellite owned by Changguang WJ (CN) in SSO that was launched on Tue, 14 Apr 2026 UTC via a LIJIAN-1 launch vehicle from the Jiuquan Satellite Launch Center, China (JSC). Unknown objects in Earth's orbit typically refer to objects detected orbiting the Earth but have not yet been identified or cataloged. These objects could be anything from previously untracked satellites, spent rocket stages, debris from satellite collisions, or even natural meteoroids temporarily captured by Earth's gravity.

Loading next visibility...
Identifier
68692, 2026-080B
Orbit
SSO
Country
Flag of CNCN / PRC
Related business
Manufacturer
Changguang WJ
Mission
Operational spacecraft
Bus & Motor
JL-1GF07, Unknown motor
Mass
~50 kg wet, ~50 kg dry
Launch date (UTC)
2026-04-14 (2 months ago)
Launch vehicle
LIJIAN-1
Launch site
Jiuquan Satellite Launch Center, China (JSC)
Object type
Unknown
Shape & HBR
Unknown shape, 1.1 m
Radar Cross Section
Large (>1 m²)

Expand to show TLE details & history
Last TLE update: 9 hours ago

TLE from 9 hours ago
0 OBJECT B
1 68692U 26080B   26150.82267642  .00007996  00000-0  51256-3 0  9991
2 68692  97.6604 226.4052 0017968 104.6557 255.6665 15.08655488  7041
Epoch: 2026-05-30T19:44Z
TLE epoch observation values (Epoch: 2026-05-30T19:44:39.242Z)
Latitude
-0.00001°
Longitude
41.90851°
Altitude
546.474 km
Speed
7.587 km/s
True Right ascension
15h 05m 37s
True Declination
0° 00' 00"
Sunlit
Object was in full shadow at epoch
Visualization orbit readout
Latitude
Unknown
Longitude
Unknown
Altitude
Unknown
Speed
Unknown
Apparent Right ascension
Unknown
Apparent Declination
Unknown
Sunlit
N/A
Visualization observer readout
Local Sidereal Time
14:24:22
Azimuth
Unknown
Elevation
Unknown
Doppler factor
Unknown
Orbital elements
Apogee altitude
549.725 km
Perigee altitude
524.874 km
Semi-major axis
6,915.436 km
Eccentricity
0.0018
Inclination
97.6604°
RAAN
226.4052°
Arg. of periapsis
104.6557°
True anomaly
255.46712°
Mean anomaly
255.6665°
Eccentric anomaly
255.5668°
Mean motion
3.7741 °/min
Orbital period
95.39 mins
BSTAR
0.00051256
Loading maneuver chart data...
Computing Atmospheric mass density...
Loading historical data...
Loading historical data...
Loading historical data...
Loading historical data...
Loading historical data...
Loading historical data...
Loading historical data...

Documentation

Showing up to 5 results
|